DMSP 5D-2 F15 (USA 147)

导读

DMSP 5D-2 F15(USA 147)是美国国防部气象卫星计划(DMSP)5D-2系列的军用气象卫星,于1999年12月12日发射。该卫星属于美国DMSP系列,延续了该系列全天候云图监测任务,搭载云层传感器、温湿度探测器等设备,为军方提供全球气象数据,支持军事行动与环境监测,是DMSP升级后的成熟观测卫星,服务美国气象情报保障,延续了该系列近半个世纪的军用气象观测任务。

基本信息
目录编号:
25991
目录名称:
DMSP 5D-2 F15 (USA 147)
国际标识:
1999-067A
轨道中心:
EARTH
卫星名称:
DMSP 5D-2 F15 (USA 147)
卫星全名:
--
卫星状态:
在轨 (已飞行9773 天)
发射日期:
1999-12-12 UTC
国别 :
美国 (US)
星等 :
--
该卫星已列入 空间交会检测服务 Space Conjunction Data Service (SCDS) ,当前飞行风险评估等级: 无高风险
轨道信息
数据来源 国际轨道数据 AOE轨道数据
星历时间 2026-09-14T05:28:06+0800
3小时前
查看轨道信息
2026-09-13T04:00:00+0800
1天前
查看轨道信息
半长轴 7211.663km 7211.663km
偏心率 0.0011024 0.0011032
轨道倾角 98.989° 98.987°
近地点辐角 108.954° 111.977°
升交点赤经 296.529° 295.457°
平近点角 51.288° 35.721°
近地点 825.575km 825.57km
远地点 841.477km 841.482km
周期 101.581分钟 101.581分钟
每日圈数 14.175867 14.175868
详细信息
使用方式:
暂无
2D轨道图
3D轨道图
轨道高度分析图
轨道倾角分析图
轨道综合分析图
查看轨道综合分析图
与全量物体交会距离演化趋势
与全量物体交会风险概率演化趋势